ITJ1KJ LIRF-LIEO

Flight info

Callsign ITJ1KJ
Flight time 0h 53m
Altitude 19000
Route ESINO Z924 GITRI
Aircraft A320/M-SDE3FGHIRWY/LB1

Departure

Time 2026-05-06 17:55
Airport Rome–Fiumicino Leonardo da Vinci International Airport (LIRF)

Arrival

Time 2026-05-06 18:48
Airport Olbia Costa Smeralda Airport (LIEO)
Time Latitude Longitude Altitude Speed Heading
2026-05-06 17:36 41.80055 12.26542 15 ft 0 kts 250°
2026-05-06 17:42 41.80056 12.26542 14 ft 0 kts 250°
2026-05-06 17:49 41.80052 12.26530 15 ft 5 kts 252°
2026-05-06 17:50 41.80054 12.26494 14 ft 4 kts 289°
2026-05-06 17:50 41.80094 12.26457 14 ft 11 kts 337°
2026-05-06 17:50 41.80126 12.26384 14 ft 9 kts 261°
2026-05-06 17:50 41.80118 12.26281 14 ft 16 kts 290°
2026-05-06 17:51 41.80165 12.26145 14 ft 15 kts 294°
2026-05-06 17:51 41.80217 12.26066 14 ft 10 kts 21°
2026-05-06 17:51 41.80293 12.26084 14 ft 18 kts 17°
2026-05-06 17:51 41.80406 12.26151 15 ft 16 kts 24°
2026-05-06 17:52 41.80501 12.26185 17 ft 12 kts 22°
2026-05-06 17:52 41.80539 12.26276 16 ft 14 kts 71°
2026-05-06 17:52 41.80588 12.26453 16 ft 26 kts 70°
2026-05-06 17:52 41.80653 12.26690 15 ft 27 kts 69°
2026-05-06 17:53 41.80718 12.26927 13 ft 27 kts 69°
2026-05-06 17:53 41.80807 12.27041 13 ft 17 kts 352°
2026-05-06 17:53 41.80871 12.27010 13 ft 0 kts 340°
2026-05-06 17:53 41.80879 12.27006 13 ft 7 kts 340°
2026-05-06 17:54 41.80949 12.26953 12 ft 13 kts 300°
2026-05-06 17:54 41.80900 12.26721 13 ft 55 kts 250°
2026-05-06 17:54 41.80689 12.25957 19 ft 118 kts 250°
2026-05-06 17:54 41.80336 12.24705 22 ft 167 kts 244°
2026-05-06 17:55 41.79925 12.23204 547 ft 172 kts 244°
2026-05-06 17:55 41.79500 12.21701 1238 ft 174 kts 244°
2026-05-06 17:55 41.79270 12.20071 1831 ft 187 kts 263°
2026-05-06 17:55 41.79222 12.18226 2109 ft 208 kts 263°
2026-05-06 17:56 41.79149 12.16277 2807 ft 208 kts 256°
2026-05-06 17:56 41.78619 12.14504 3482 ft 207 kts 231°
2026-05-06 17:56 41.77553 12.13141 3907 ft 223 kts 210°
2026-05-06 17:56 41.76146 12.12041 4300 ft 245 kts 210°
2026-05-06 17:57 41.74681 12.10789 5015 ft 254 kts 213°
2026-05-06 17:57 41.73193 12.09460 5792 ft 260 kts 214°
2026-05-06 17:57 41.71687 12.08079 6637 ft 263 kts 214°
2026-05-06 17:57 41.70161 12.06731 7511 ft 263 kts 213°
2026-05-06 17:58 41.68617 12.05390 8305 ft 267 kts 213°
2026-05-06 17:58 41.67048 12.03998 9049 ft 274 kts 214°
2026-05-06 17:58 41.65442 12.02584 9872 ft 277 kts 213°
2026-05-06 17:58 41.63794 12.01177 10446 ft 290 kts 213°
2026-05-06 17:59 41.62023 11.99668 10656 ft 313 kts 213°
2026-05-06 17:59 41.60129 11.98054 10928 ft 331 kts 212°
2026-05-06 17:59 41.58167 11.96379 11541 ft 338 kts 212°
2026-05-06 17:59 41.56178 11.94674 12226 ft 342 kts 212°
2026-05-06 18:00 41.54165 11.92945 12921 ft 345 kts 212°
2026-05-06 18:00 41.52146 11.91207 13615 ft 349 kts 212°
2026-05-06 18:00 41.50085 11.89431 14234 ft 352 kts 213°
2026-05-06 18:00 41.48023 11.87658 14869 ft 354 kts 212°
2026-05-06 18:01 41.45951 11.85877 15350 ft 356 kts 213°
2026-05-06 18:01 41.43864 11.84084 16007 ft 357 kts 212°
2026-05-06 18:01 41.41769 11.82285 16647 ft 359 kts 213°
2026-05-06 18:01 41.39828 11.80192 16904 ft 360 kts 225°
2026-05-06 18:02 41.38287 11.77597 17295 ft 364 kts 237°
2026-05-06 18:02 41.37142 11.74526 17937 ft 369 kts 247°
2026-05-06 18:02 41.36276 11.71341 18527 ft 371 kts 248°
2026-05-06 18:02 41.35398 11.68114 18853 ft 372 kts 248°
2026-05-06 18:03 41.34512 11.64858 18949 ft 380 kts 248°
2026-05-06 18:03 41.33598 11.61515 18963 ft 388 kts 248°
2026-05-06 18:03 41.32674 11.58137 18962 ft 389 kts 248°
2026-05-06 18:03 41.31749 11.54744 18962 ft 390 kts 248°
2026-05-06 18:04 41.30828 11.51356 18959 ft 390 kts 248°
2026-05-06 18:04 41.29903 11.47973 18958 ft 390 kts 248°
2026-05-06 18:04 41.28973 11.44588 18958 ft 390 kts 248°
2026-05-06 18:04 41.28042 11.41203 18962 ft 390 kts 248°
2026-05-06 18:05 41.27135 11.37903 18960 ft 390 kts 248°
2026-05-06 18:05 41.26205 11.34523 18961 ft 389 kts 248°
2026-05-06 18:05 41.25276 11.31147 18964 ft 390 kts 248°
2026-05-06 18:05 41.24344 11.27764 18975 ft 390 kts 248°
2026-05-06 18:06 41.23410 11.24383 18973 ft 389 kts 248°
2026-05-06 18:06 41.22479 11.21018 18963 ft 389 kts 248°
2026-05-06 18:06 41.21568 11.17729 18956 ft 390 kts 248°
2026-05-06 18:06 41.20634 11.14347 18952 ft 391 kts 248°
2026-05-06 18:07 41.19698 11.10959 18948 ft 391 kts 248°
2026-05-06 18:07 41.18759 11.07574 18950 ft 391 kts 248°
2026-05-06 18:07 41.17816 11.04183 18948 ft 392 kts 248°
2026-05-06 18:07 41.16877 11.00816 18950 ft 392 kts 248°
2026-05-06 18:08 41.15929 10.97423 18957 ft 392 kts 248°
2026-05-06 18:08 41.14988 10.94059 18960 ft 392 kts 248°
2026-05-06 18:08 41.14045 10.90689 18962 ft 392 kts 248°
2026-05-06 18:08 41.13093 10.87300 18964 ft 392 kts 248°
2026-05-06 18:09 41.12140 10.83918 18955 ft 392 kts 248°
2026-05-06 18:09 41.11184 10.80524 18960 ft 392 kts 248°
2026-05-06 18:09 41.10245 10.77187 18964 ft 392 kts 248°
2026-05-06 18:09 41.09292 10.73798 18961 ft 392 kts 248°
2026-05-06 18:10 41.08341 10.70418 18898 ft 386 kts 248°
2026-05-06 18:10 41.07427 10.67186 18650 ft 365 kts 248°
2026-05-06 18:10 41.06563 10.64129 18247 ft 348 kts 248°
2026-05-06 18:10 41.05727 10.61178 17770 ft 337 kts 248°
2026-05-06 18:11 41.04903 10.58270 17329 ft 337 kts 248°
2026-05-06 18:11 41.04083 10.55371 16893 ft 336 kts 248°
2026-05-06 18:11 41.03263 10.52482 16457 ft 334 kts 248°
2026-05-06 18:11 41.02449 10.49621 16019 ft 333 kts 248°
2026-05-06 18:12 41.01633 10.46761 15577 ft 331 kts 248°
2026-05-06 18:12 41.00822 10.43927 15143 ft 329 kts 247°
2026-05-06 18:12 41.00014 10.41110 14713 ft 328 kts 247°
2026-05-06 18:12 40.99213 10.38311 14259 ft 326 kts 247°
2026-05-06 18:13 40.98417 10.35525 13804 ft 325 kts 248°
2026-05-06 18:13 40.97620 10.32738 13307 ft 322 kts 247°
2026-05-06 18:13 40.96828 10.29972 12852 ft 320 kts 248°
2026-05-06 18:13 40.96044 10.27228 12377 ft 318 kts 248°
2026-05-06 18:14 40.95261 10.24497 11915 ft 317 kts 248°
2026-05-06 18:14 40.94476 10.21780 11448 ft 314 kts 248°
2026-05-06 18:14 40.93697 10.19087 10978 ft 311 kts 249°
2026-05-06 18:14 40.92931 10.16446 10521 ft 304 kts 249°
2026-05-06 18:15 40.92155 10.13930 10168 ft 288 kts 247°
2026-05-06 18:15 40.91337 10.11548 9927 ft 284 kts 245°
2026-05-06 18:15 40.90496 10.09200 9800 ft 283 kts 246°
2026-05-06 18:15 40.89651 10.06849 9650 ft 285 kts 245°
2026-05-06 18:16 40.88813 10.04505 9532 ft 285 kts 246°
2026-05-06 18:16 40.87818 10.02202 9370 ft 286 kts 236°
2026-05-06 18:16 40.86698 10.00055 8697 ft 287 kts 236°
2026-05-06 18:16 40.85624 9.97945 8438 ft 269 kts 241°
2026-05-06 18:17 40.85126 9.95660 8063 ft 255 kts 272°
2026-05-06 18:17 40.85543 9.93422 7934 ft 254 kts 299°
2026-05-06 18:17 40.86725 9.91716 7608 ft 255 kts 326°
2026-05-06 18:17 40.88223 9.90465 7232 ft 254 kts 328°
2026-05-06 18:18 40.89708 9.89245 6830 ft 251 kts 328°
2026-05-06 18:18 40.91170 9.88061 6447 ft 244 kts 332°
2026-05-06 18:18 40.92791 9.87507 6088 ft 243 kts
2026-05-06 18:18 40.94384 9.88163 5817 ft 235 kts 37°
2026-05-06 18:19 40.95437 9.89647 5790 ft 210 kts 58°
2026-05-06 18:19 40.96202 9.91126 5735 ft 184 kts 57°
2026-05-06 18:19 40.96915 9.92503 5668 ft 181 kts 58°
2026-05-06 18:19 40.97615 9.93859 5599 ft 169 kts 57°
2026-05-06 18:20 40.98298 9.95187 5583 ft 185 kts 58°
2026-05-06 18:20 40.99040 9.96632 5535 ft 193 kts 58°
2026-05-06 18:20 40.99800 9.98108 5494 ft 195 kts 59°
2026-05-06 18:20 41.00575 9.99611 5450 ft 200 kts 57°
2026-05-06 18:21 41.01328 10.01066 5384 ft 178 kts 57°
2026-05-06 18:21 41.01992 10.02346 5322 ft 164 kts 58°
2026-05-06 18:21 41.02633 10.03589 5291 ft 164 kts 59°
2026-05-06 18:21 41.03313 10.04914 5261 ft 186 kts 58°
2026-05-06 18:22 41.04066 10.06382 5178 ft 195 kts 57°
2026-05-06 18:22 41.04835 10.07869 5107 ft 197 kts 58°
2026-05-06 18:22 41.05611 10.09368 4918 ft 198 kts 58°
2026-05-06 18:22 41.06385 10.10867 4841 ft 196 kts 58°
2026-05-06 18:23 41.07383 10.12089 4834 ft 200 kts 24°
2026-05-06 18:23 41.08740 10.12220 4833 ft 199 kts 343°
2026-05-06 18:23 41.09866 10.11243 4843 ft 195 kts 312°
2026-05-06 18:23 41.10915 10.10096 4831 ft 197 kts 322°
2026-05-06 18:24 41.12063 10.09099 4835 ft 198 kts 323°
2026-05-06 18:24 41.13219 10.08136 4839 ft 195 kts 324°
2026-05-06 18:24 41.14364 10.07172 4840 ft 195 kts 323°
2026-05-06 18:24 41.15498 10.06194 4843 ft 194 kts 322°
2026-05-06 18:25 41.16328 10.04859 4844 ft 187 kts 287°
2026-05-06 18:25 41.16382 10.03194 4833 ft 181 kts 252°
2026-05-06 18:25 41.15756 10.01781 4839 ft 177 kts 230°
2026-05-06 18:25 41.15045 10.00448 4847 ft 177 kts 234°
2026-05-06 18:26 41.14360 9.99090 4839 ft 177 kts 234°
2026-05-06 18:26 41.13677 9.97723 4846 ft 178 kts 234°
2026-05-06 18:26 41.12997 9.96364 4846 ft 176 kts 234°
2026-05-06 18:26 41.12314 9.95010 4841 ft 177 kts 233°
2026-05-06 18:27 41.11623 9.93645 4839 ft 179 kts 233°
2026-05-06 18:27 41.10927 9.92273 4841 ft 180 kts 233°
2026-05-06 18:27 41.10231 9.90901 4839 ft 179 kts 234°
2026-05-06 18:27 41.09536 9.89532 4841 ft 179 kts 233°
2026-05-06 18:28 41.08838 9.88160 4842 ft 180 kts 233°
2026-05-06 18:28 41.08141 9.86789 4839 ft 179 kts 233°
2026-05-06 18:28 41.07426 9.85433 4845 ft 180 kts 232°
2026-05-06 18:28 41.06704 9.84096 4835 ft 177 kts 231°
2026-05-06 18:29 41.05995 9.82749 4815 ft 180 kts 234°
2026-05-06 18:29 41.05524 9.81846 4791 ft 180 kts 234°
2026-05-06 18:29 41.04814 9.80479 4715 ft 180 kts 234°
2026-05-06 18:29 41.04105 9.79112 4594 ft 180 kts 234°
2026-05-06 18:30 41.03397 9.77746 4384 ft 179 kts 234°
2026-05-06 18:30 41.02693 9.76389 4156 ft 178 kts 234°
2026-05-06 18:30 41.01766 9.74604 3844 ft 177 kts 234°
2026-05-06 18:30 41.01295 9.73697 3692 ft 177 kts 234°
2026-05-06 18:31 41.00600 9.72357 3463 ft 177 kts 235°
2026-05-06 18:31 40.99905 9.71020 3226 ft 176 kts 234°
2026-05-06 18:31 40.99213 9.69689 2997 ft 175 kts 234°
2026-05-06 18:31 40.98521 9.68358 2767 ft 175 kts 234°
2026-05-06 18:32 40.97832 9.67035 2528 ft 175 kts 234°
2026-05-06 18:32 40.97145 9.65714 2295 ft 174 kts 234°
2026-05-06 18:32 40.96460 9.64398 2063 ft 173 kts 234°
2026-05-06 18:32 40.95777 9.63089 1834 ft 170 kts 234°
2026-05-06 18:33 40.95145 9.61873 1616 ft 151 kts 233°
2026-05-06 18:33 40.94569 9.60769 1418 ft 143 kts 233°
2026-05-06 18:33 40.94008 9.59694 1224 ft 141 kts 234°
2026-05-06 18:33 40.93460 9.58644 1040 ft 141 kts 235°
2026-05-06 18:34 40.92902 9.57576 844 ft 141 kts 236°
2026-05-06 18:34 40.92346 9.56511 666 ft 140 kts 237°
2026-05-06 18:34 40.91790 9.55454 469 ft 140 kts 236°
2026-05-06 18:34 40.91237 9.54369 323 ft 155 kts 238°
2026-05-06 18:35 40.90617 9.53123 1009 ft 166 kts 237°
2026-05-06 18:35 40.89950 9.51842 1884 ft 172 kts 233°
2026-05-06 18:35 40.89218 9.50469 2257 ft 194 kts 233°
2026-05-06 18:35 40.88201 9.49190 2626 ft 212 kts 202°
2026-05-06 18:36 40.86735 9.49030 3203 ft 218 kts 163°
2026-05-06 18:36 40.85525 9.50215 3932 ft 225 kts 122°
2026-05-06 18:36 40.84983 9.52176 4685 ft 234 kts 100°
2026-05-06 18:36 40.84833 9.54321 4931 ft 234 kts 96°
2026-05-06 18:37 40.84743 9.56463 5001 ft 234 kts 95°
2026-05-06 18:37 40.84669 9.58604 5009 ft 233 kts 95°
2026-05-06 18:37 40.84597 9.60742 5007 ft 233 kts 94°
2026-05-06 18:37 40.84521 9.62879 5006 ft 234 kts 95°
2026-05-06 18:38 40.84442 9.65015 5010 ft 233 kts 95°
2026-05-06 18:38 40.84360 9.67155 5008 ft 233 kts 95°
2026-05-06 18:38 40.84277 9.69290 5004 ft 234 kts 95°
2026-05-06 18:38 40.84193 9.71429 5003 ft 233 kts 95°
2026-05-06 18:39 40.84106 9.73562 5006 ft 233 kts 95°
2026-05-06 18:39 40.84018 9.75694 5008 ft 232 kts 95°
2026-05-06 18:39 40.83932 9.77828 5005 ft 233 kts 95°
2026-05-06 18:40 40.83758 9.82093 5006 ft 233 kts 95°
2026-05-06 18:40 40.83716 9.84224 5004 ft 233 kts 84°
2026-05-06 18:40 40.84261 9.86237 5003 ft 237 kts 55°
2026-05-06 18:40 40.85494 9.87659 5004 ft 238 kts 25°
2026-05-06 18:41 40.87106 9.88107 5005 ft 239 kts 355°
2026-05-06 18:41 40.88689 9.87474 5008 ft 240 kts 330°
2026-05-06 18:41 40.90160 9.86445 5007 ft 240 kts 331°
2026-05-06 18:41 40.91629 9.85416 5005 ft 239 kts 330°
2026-05-06 18:42 40.93100 9.84386 5009 ft 239 kts 330°
2026-05-06 18:42 40.94576 9.83355 4987 ft 239 kts 331°
2026-05-06 18:42 40.96034 9.82336 4747 ft 235 kts 330°
2026-05-06 18:42 40.97473 9.81329 4453 ft 233 kts 330°
2026-05-06 18:43 40.98893 9.80304 4116 ft 231 kts 323°
2026-05-06 18:43 41.00039 9.78873 3998 ft 226 kts 303°
2026-05-06 18:43 41.00765 9.77046 3897 ft 224 kts 285°
2026-05-06 18:43 41.01008 9.75029 3735 ft 221 kts 266°
2026-05-06 18:44 41.00755 9.73042 3531 ft 217 kts 248°
2026-05-06 18:44 41.00053 9.71301 3267 ft 213 kts 234°
2026-05-06 18:44 40.99215 9.69696 2992 ft 211 kts 234°
2026-05-06 18:44 40.98385 9.68099 2711 ft 210 kts 234°
2026-05-06 18:45 40.97566 9.66524 2427 ft 203 kts 234°
2026-05-06 18:45 40.96781 9.65015 2163 ft 196 kts 234°
2026-05-06 18:45 40.96024 9.63562 1941 ft 184 kts 234°
2026-05-06 18:45 40.95334 9.62236 1700 ft 165 kts 233°
2026-05-06 18:46 40.94717 9.61052 1464 ft 148 kts 233°
2026-05-06 18:46 40.94147 9.59959 1276 ft 142 kts 235°
2026-05-06 18:46 40.93599 9.58910 1085 ft 140 kts 236°
2026-05-06 18:46 40.93051 9.57861 897 ft 139 kts 237°
2026-05-06 18:47 40.92499 9.56810 702 ft 139 kts 237°
2026-05-06 18:47 40.91958 9.55761 535 ft 139 kts 237°
2026-05-06 18:47 40.91428 9.54747 344 ft 139 kts 233°
2026-05-06 18:47 40.90944 9.53827 209 ft 139 kts 237°
2026-05-06 18:48 40.90481 9.52948 67 ft 138 kts 236°
2026-05-06 18:48 40.90039 9.52092 34 ft 112 kts 236°
2026-05-06 18:48 40.89696 9.51439 40 ft 52 kts 234°
2026-05-06 18:48 40.89621 9.51297 42 ft 0 kts 237°